This is the latest recevied weather packets stored in our database for station/object W3AJR. If no packets are shown the sender has not sent any weather packets the latest 10 day(s).
| Time | Temp. | Humidity | Pressure | Rain* | Wind** | Luminosity | Snow |
|---|---|---|---|---|---|---|---|
| 1777730239 | 11.11° C | 61% | 1014.4 hPa | 0 mm | - | 235 W/m² | - |
| 1777729936 | 10.56° C | 62% | 1014.1 hPa | 0 mm | - | 217 W/m² | - |
| 1777729632 | 10.56° C | 62% | 1014.2 hPa | 0 mm | - | 166 W/m² | - |
| 1777729329 | 10.56° C | 61% | 1014.2 hPa | 0 mm | - | 145 W/m² | - |
| 1777729025 | 10.56° C | 62% | 1014 hPa | 0 mm | - | 136 W/m² | - |
| 1777728722 | 10.56° C | 62% | 1014.2 hPa | 0 mm | - | 138 W/m² | - |
| 1777728419 | 10° C | 64% | 1014.3 hPa | 0 mm | - | 128 W/m² | - |
| 1777728116 | 10° C | 63% | 1014.3 hPa | 0 mm | - | 145 W/m² | - |
| 1777727813 | 10° C | 64% | 1013.9 hPa | 0 mm | - | 167 W/m² | - |
| 1777727510 | 10° C | 66% | 1014.3 hPa | 0 mm | - | 167 W/m² | - |
| 1777727208 | 10° C | 67% | 1014 hPa | 0 mm | - | 150 W/m² | - |
| 1777726905 | 9.44° C | 66% | 1014.1 hPa | 0 mm | - | 144 W/m² | - |
| 1777726601 | 10° C | 68% | 1014.1 hPa | 0 mm | - | 143 W/m² | - |
| 1777726299 | 9.44° C | 69% | 1014.1 hPa | 0 mm | - | 137 W/m² | - |
| 1777725995 | 9.44° C | 67% | 1014.2 hPa | 0 mm | - | 150 W/m² | - |
| 1777725692 | 9.44° C | 68% | 1014.2 hPa | 0 mm | - | 130 W/m² | - |
| 1777725391 | 8.89° C | 68% | 1014.3 hPa | 0 mm | - | 116 W/m² | - |
| 1777725087 | 8.89° C | 68% | 1014 hPa | 0 mm | - | 107 W/m² | - |
| 1777724784 | 8.89° C | 68% | 1013.7 hPa | 0 mm | - | 108 W/m² | - |
| 1777724481 | 8.89° C | 68% | 1013.8 hPa | 0 mm | - | 117 W/m² | - |
| 1777724179 | 8.89° C | 68% | 1013.8 hPa | 0 mm | - | 102 W/m² | - |
| 1777723876 | 8.89° C | 69% | 1013.9 hPa | 0 mm | - | 95 W/m² | - |
| 1777723572 | 8.89° C | 70% | 1014.2 hPa | 0 mm | - | 90 W/m² | - |
| 1777723269 | 8.89° C | 70% | 1014 hPa | 0 mm | - | 85 W/m² | - |
| 1777722967 | 8.89° C | 70% | 1013.9 hPa | 0 mm | - | 90 W/m² | - |
* Rain latest hour (hover to see other rain measurements)
** Current wind speed in m/s (hover to see current wind gust speed)